This is the latest recevied weather packets stored in our database for station/object LRCK. If no packets are shown the sender has not sent any weather packets the latest 10 day(s).
| Time | Temp. | Humidity | Pressure | Rain* | Wind** | Luminosity | Snow |
|---|---|---|---|---|---|---|---|
| 1777717998 | 11.11° C | 67% | 1022 hPa | - | - | - | - |
| 1777717094 | 10° C | 71% | 1022 hPa | - | - | - | - |
| 1777716197 | 10° C | 71% | 1022 hPa | - | - | - | - |
| 1777714474 | 7.78° C | 66% | 1023 hPa | - | - | - | - |
| 1777713497 | 11.11° C | 54% | 1022 hPa | - | - | - | - |
| 1777712597 | 11.11° C | 54% | 1022 hPa | - | - | - | - |
| 1777711704 | 12.22° C | 51% | 1023 hPa | - | - | - | - |
| 1777710797 | 12.22° C | 51% | 1023 hPa | - | - | - | - |
| 1777709897 | 11.11° C | 54% | 1023 hPa | - | - | - | - |
| 1777708997 | 11.11° C | 54% | 1023 hPa | - | - | - | - |
| 1777708097 | 11.11° C | 47% | 1023 hPa | - | - | - | - |
| 1777707197 | 11.11° C | 47% | 1023 hPa | - | - | - | - |
| 1777706297 | 10° C | 58% | 1022 hPa | - | - | - | - |
| 1777705399 | 10° C | 58% | 1022 hPa | - | - | - | - |
| 1777704497 | 10° C | 54% | 1022 hPa | - | - | - | - |
| 1777703597 | 10° C | 54% | 1022 hPa | - | - | - | - |
| 1777702697 | 8.89° C | 58% | 1022 hPa | - | - | - | - |
| 1777701797 | 8.89° C | 58% | 1022 hPa | - | - | - | - |
| 1777700897 | 7.78° C | 66% | 1022 hPa | - | - | - | - |
| 1777699998 | 7.78° C | 66% | 1022 hPa | - | - | - | - |
| 1777699097 | 6.11° C | 76% | 1022 hPa | - | - | - | - |
| 1777698197 | 6.11° C | 76% | 1022 hPa | - | - | - | - |
| 1777697297 | 5° C | 81% | 1022 hPa | - | - | - | - |
| 1777696397 | 5° C | 81% | 1022 hPa | - | - | - | - |
| 1777695497 | 3.89° C | 81% | 1022 hPa | - | - | - | - |
* Rain since midnight (hover to see other rain measurements)
** Current wind speed in m/s (hover to see current wind gust speed)